Wharton, TX

6:29 PM CDT on September 22, 2019 (GMT -0500)
Wharton Regional

Weather History for KARM - August, 2019

Change the Weather History Date:

Thursday, August 22, 2019

  Actual Average (KPSX) Record (KPSX)
Temperature  
Mean Temperature 85 °F -  
Max Temperature 97 °F 91 °F 98 °F (1951)
Min Temperature 73 °F 75 °F 66 °F (1946)
Cooling Degree Days 20    
Growing Degree Days 35 (Base 50)    
Moisture  
Dew Point 71 °F    
Average Humidity 70    
Maximum Humidity 96    
Minimum Humidity 33    
Precipitation  
Precipitation 0.00 in - - ()
Sea Level Pressure  
Sea Level Pressure 29.93 in    
Wind  
Wind Speed 4 mph ()    
Max Wind Speed 16 mph    
Max Gust Speed 22 mph    
Visibility 9.3 miles    
Events Thunderstorm    
Averages and records for this station are not official NWS values.
T = Trace of Precipitation, MM = Missing Value Source: Averaged Metar Reports

Daily Weather History Graph

Daily Weather History Graph

Search for Another Location

Airport or City:

Astronomy

Aug. 22, 2019 Rise Set
Actual Time 6:56 AM CDT 7:57 PM CDT
Civil Twilight 6:32 AM CDT 8:22 PM CDT
Nautical Twilight 6:03 AM CDT 8:51 PM CDT
Astronomical Twilight 5:33 AM CDT 9:21 PM CDT
Moon No Moon Rise 1:03 PM CDT
Length of Visible Light 13h 50m
Length of Day
13h 00m
Waning Gibbous, 59% of the Moon is Illuminated
Aug 22
Waning Gibbous
Aug 23
Last Quarter
Aug 30
New
Sep 5
First Quarter
Sep 13
Full

Hourly Weather History & Observations

Time (CDT) Temp. Heat Index Dew Point Humidity Pressure Visibility Wind Dir Wind Speed Gust Speed Precip Events Conditions
12:15 AM 76.3 °F - 71.6 °F 85% 29.97 in 10.0 mi SE 3.5 mph - N/A   Clear
12:35 AM 76.1 °F - 71.8 °F 86% 29.98 in 10.0 mi SE 3.5 mph - N/A   Clear
12:55 AM 76.1 °F - 72.1 °F 87% 29.97 in 10.0 mi ESE 3.5 mph - N/A   Clear
1:15 AM 76.3 °F - 72.5 °F 88% 29.97 in 10.0 mi East 3.5 mph - N/A   Scattered Clouds
1:35 AM 76.1 °F - 72.1 °F 87% 29.97 in 10.0 mi Calm Calm - N/A   Scattered Clouds
1:55 AM 76.3 °F - 72.5 °F 88% 29.97 in 10.0 mi Calm Calm - N/A   Clear
2:15 AM 76.3 °F - 72.5 °F 88% 29.97 in 10.0 mi Calm Calm - N/A   Clear
2:35 AM 76.1 °F - 72.5 °F 89% 29.96 in 10.0 mi Calm Calm - N/A   Clear
2:55 AM 75.2 °F - 72.1 °F 90% 29.96 in 10.0 mi Calm Calm - N/A   Clear
3:15 AM 74.3 °F - 71.6 °F 91% 29.95 in 7.0 mi Calm Calm - N/A   Clear
3:35 AM 74.3 °F - 72.0 °F 92% 29.95 in 7.0 mi Calm Calm - N/A   Clear
3:55 AM 74.7 °F - 72.7 °F 94% 29.96 in 7.0 mi Calm Calm - N/A   Clear
4:15 AM 74.3 °F - 72.0 °F 92% 29.95 in 7.0 mi Calm Calm - N/A   Clear
4:35 AM 73.9 °F - 72.0 °F 93% 29.95 in 7.0 mi Calm Calm - N/A   Clear
4:55 AM 73.8 °F - 72.0 °F 94% 29.95 in 7.0 mi Calm Calm - N/A   Scattered Clouds
5:15 AM 74.3 °F - 72.5 °F 94% 29.95 in 7.0 mi Calm Calm - N/A   Scattered Clouds
5:35 AM 74.7 °F - 73.2 °F 95% 29.95 in 7.0 mi Calm Calm - N/A   Scattered Clouds
5:55 AM 74.5 °F - 72.9 °F 95% 29.95 in 7.0 mi Calm Calm - N/A   Clear
6:15 AM 74.1 °F - 72.5 °F 95% 29.95 in 7.0 mi Calm Calm - N/A   Clear
6:35 AM 74.3 °F - 72.7 °F 95% 29.95 in 7.0 mi ESE 3.5 mph - N/A   Clear
6:55 AM 73.8 °F - 72.3 °F 95% 29.95 in 7.0 mi Calm Calm - N/A   Clear
7:15 AM 73.4 °F - 72.0 °F 95% 29.96 in 7.0 mi Calm Calm - N/A   Clear
7:35 AM 74.5 °F - 73.0 °F 95% 29.97 in 5.0 mi Calm Calm - N/A   Clear
7:55 AM 76.1 °F - 75.0 °F 96% 29.98 in 7.0 mi Calm Calm - N/A   Clear
8:15 AM 78.1 °F - 76.1 °F 94% 29.98 in 10.0 mi Calm Calm - N/A   Clear
8:35 AM 81.7 °F 88.3 °F 75.2 °F 81% 29.98 in 10.0 mi Calm Calm - N/A   Mostly Cloudy
8:55 AM 83.5 °F 90.6 °F 74.3 °F 74% 29.98 in 10.0 mi South 3.5 mph - N/A   Mostly Cloudy
9:15 AM 83.1 °F 90.4 °F 74.8 °F 76% 29.98 in 10.0 mi South 3.5 mph - N/A   Mostly Cloudy
9:40 AM 85.1 °F 92.2 °F 73.6 °F 68% 29.98 in 10.0 mi SE 3.5 mph - N/A   Clear
9:55 AM 84.7 °F 91.7 °F 73.8 °F 69% 29.97 in 10.0 mi South 4.6 mph - N/A   Clear
10:15 AM 87.4 °F 94.8 °F 73.0 °F 62% 29.98 in 10.0 mi SSE 5.8 mph - N/A   Mostly Cloudy
10:35 AM 86.7 °F 92.9 °F 71.6 °F 61% 29.97 in 10.0 mi SSE 4.6 mph - N/A   Scattered Clouds
10:55 AM 90.0 °F 95.0 °F 69.4 °F 51% 29.98 in 10.0 mi SSE 8.1 mph - N/A   Mostly Cloudy
11:15 AM 91.9 °F 97.4 °F 69.6 °F 48% 29.97 in 10.0 mi ESE 6.9 mph - N/A   Scattered Clouds
11:35 AM 90.9 °F 96.2 °F 69.6 °F 50% 29.97 in 10.0 mi South 4.6 mph - N/A   Scattered Clouds
11:55 AM 89.4 °F 94.8 °F 70.3 °F 53% 29.96 in 10.0 mi SSW 6.9 mph - N/A   Mostly Cloudy
12:15 PM 90.3 °F 96.7 °F 70.9 °F 53% 29.96 in 10.0 mi South 3.5 mph - N/A   Overcast
12:35 PM 88.7 °F 95.2 °F 71.6 °F 57% 29.95 in 10.0 mi SSW 3.5 mph - N/A   Overcast
12:55 PM 93.6 °F 96.4 °F 66.0 °F 40% 29.94 in 10.0 mi SSE 9.2 mph - N/A   Scattered Clouds
1:15 PM 94.5 °F 97.0 °F 64.9 °F 38% 29.93 in 10.0 mi South 8.1 mph - N/A   Scattered Clouds
1:35 PM 94.6 °F 96.4 °F 64.0 °F 36% 29.92 in 10.0 mi SSE 6.9 mph - N/A   Scattered Clouds
1:55 PM 95.9 °F 99.6 °F 66.2 °F 38% 29.91 in 10.0 mi East 6.9 mph - N/A   Scattered Clouds
2:15 PM 94.8 °F 98.7 °F 66.9 °F 40% 29.90 in 10.0 mi East 9.2 mph - N/A   Scattered Clouds
2:35 PM 95.9 °F 98.0 °F 64.6 °F 35% 29.90 in 10.0 mi ESE 8.1 mph - N/A   Scattered Clouds
2:55 PM 96.3 °F 100.8 °F 67.5 °F 39% 29.89 in 10.0 mi East 9.2 mph 18.4 mph N/A   Scattered Clouds
3:15 PM 95.0 °F 98.5 °F 66.7 °F 39% 29.89 in 10.0 mi SE 10.4 mph 16.1 mph N/A   Scattered Clouds
3:35 PM 94.8 °F 97.6 °F 65.3 °F 38% 29.88 in 10.0 mi ESE 9.2 mph - N/A   Scattered Clouds
3:55 PM 97.3 °F 99.4 °F 64.0 °F 33% 29.87 in 10.0 mi SE 15.0 mph - N/A Thunderstorm Scattered Clouds
4:15 PM 92.3 °F 97.0 °F 69.1 °F 46% 29.87 in 10.0 mi ESE 16.1 mph 21.9 mph N/A   Scattered Clouds
4:35 PM 88.9 °F 93.8 °F 69.6 °F 53% 29.88 in 10.0 mi SE 11.5 mph - N/A   Clear
4:55 PM 89.1 °F 95.0 °F 70.9 °F 55% 29.87 in 10.0 mi SE 12.7 mph - N/A   Clear
5:15 PM 89.8 °F 95.6 °F 70.7 °F 53% 29.86 in 10.0 mi SE 10.4 mph - N/A   Clear
5:35 PM 90.1 °F 95.3 °F 70.0 °F 51% 29.86 in 10.0 mi ESE 13.8 mph - N/A   Clear
5:55 PM 91.4 °F 96.3 °F 69.4 °F 48% 29.86 in 10.0 mi ESE 12.7 mph 18.4 mph N/A   Clear
6:15 PM 90.9 °F 95.3 °F 68.9 °F 48% 29.87 in 10.0 mi ESE 13.8 mph 19.6 mph N/A   Clear
6:35 PM 90.7 °F 95.0 °F 68.4 °F 48% 29.87 in 10.0 mi SE 12.7 mph - N/A   Clear
6:55 PM 89.8 °F 94.2 °F 68.7 °F 50% 29.87 in 10.0 mi SE 15.0 mph 19.6 mph N/A   Clear
7:15 PM 88.5 °F 94.4 °F 70.9 °F 56% 29.88 in 10.0 mi SE 16.1 mph - N/A   Scattered Clouds
7:35 PM 86.7 °F 92.9 °F 71.8 °F 61% 29.88 in 10.0 mi SE 16.1 mph - N/A   Scattered Clouds
7:55 PM 84.9 °F 90.7 °F 72.0 °F 65% 29.89 in 10.0 mi SE 12.7 mph - N/A   Clear
8:15 PM 84.2 °F 89.9 °F 72.0 °F 67% 29.90 in 10.0 mi SE 11.5 mph 17.3 mph N/A   Clear
9:00 PM 82.4 °F 87.4 °F 72.3 °F 71% 29.90 in 10.0 mi ESE 8.1 mph - N/A   Clear
9:15 PM 82.0 °F 87.2 °F 72.7 °F 73% 29.90 in 10.0 mi ESE 5.8 mph - N/A   Clear
9:55 PM 80.6 °F 85.4 °F 73.4 °F 79% 29.91 in 10.0 mi SE 4.6 mph - N/A   Clear
10:15 PM 80.2 °F 84.7 °F 73.6 °F 80% 29.92 in 10.0 mi ESE 5.8 mph - N/A   Clear
10:35 PM 79.9 °F - 73.8 °F 81% 29.93 in 10.0 mi Calm Calm - N/A   Clear
11:15 PM 79.0 °F - 73.6 °F 83% 29.93 in 10.0 mi East 3.5 mph - N/A   Clear
11:35 PM 78.8 °F - 73.4 °F 83% 29.93 in 10.0 mi East 3.5 mph - N/A   Clear
11:55 PM 78.3 °F - 73.6 °F 85% 29.93 in 10.0 mi East 4.6 mph - N/A   Clear